FENGYUN 1C DEB, 37906

Orbit data source: Space-Track

FENGYUN 1C DEB, 37906 is space debris in SSO originally from a launch on Mon, 10 May 1999 UTC launched from the Taiyaun Space Center, China (TSC). Fengyun 1C debris stems from the Chinese weather satellite Fengyun-1C, which was intentionally destroyed by a Chinese anti-satellite missile in 2007. This event dramatically increased the amount of space debris, with thousands of trackable fragments posing hazards to satellites and human spaceflight. The Fengyun 1C debris cloud has become a focal point in discussions about space sustainability and the need for international regulations to prevent the creation of new debris.

Loading next visibility...
Identifier
37906, 1999-025ENF
Orbit
SSO
Country
Flag of CNCN / PRC
Related business
Manufacturer
Unknown
Mission
Spacecraft
Bus & Motor
Unknown
Mass
Unknown
Launch date (UTC)
1999-05-10 (27 years ago)
Launch vehicle
Unknown
Launch site
Taiyaun Space Center, China (TSC)
Object type
Payload
Rocket body
Debris
Shape & HBR
Unknown shape, 0.1 m
Radar Cross Section
Small (<0.1 m²)

Expand to show TLE details & history
Last TLE update: 1 week ago

TLE from 1 week ago
0 FENGYUN 1C DEB
1 37906U 99025ENF 26247.38455071  .00000144  00000-0  16229-3 0  9996
2 37906  99.5772 297.1828 0163260  50.4371  14.0646 13.81078345631226
Epoch: 2026-09-04T09:13Z
TLE epoch observation values (Epoch: 2026-09-04T09:13:45.181Z)
Latitude
63.39923°
Longitude
155.65393°
Altitude
854.78 km
Speed
7.49 km/s
True Right ascension
18h 30m 24s
True Declination
63° 15' 47"
Sunlit
Object was in daylight at epoch
Visualization orbit readout
Latitude
Unknown
Longitude
Unknown
Altitude
Unknown
Speed
Unknown
Apparent Right ascension
Unknown
Apparent Declination
Unknown
Sunlit
N/A
Visualization observer readout
Local Sidereal Time
07:38:01
Azimuth
Unknown
Elevation
Unknown
Doppler factor
Unknown
Orbital elements
Apogee altitude
1,077.076 km
Perigee altitude
837.558 km
Semi-major axis
7,335.454 km
Eccentricity
0.01633
Inclination
99.5772°
RAAN
297.1828°
Arg. of periapsis
50.4371°
True anomaly
14.52841°
Mean anomaly
14.0646°
Eccentric anomaly
14.29558°
Mean motion
3.45464 °/min
Orbital period
104.21 mins
BSTAR
0.00016229
Loading maneuver chart data...
Computing Atmospheric mass density...

Documentation

Showing up to 5 results
|